When you browse on this site, cookies collect data to enhance your experience and personalize the content and advertising you see.
Visit our Privacy Policy to learn more. By continuing to use the site, you agree to this use of cookies and data.
  • In United Kingdom
  • List of Countries
  • For 7 days
  • Water Temperature
  • Weather Map
  • Weather Widgets
  • user-avatar
    Login

    Hourly Weather Ghanzi

    Today, 22 January, Wednesday

    Time Temperature Precipitation Wind Pressure Humidity
    00:00 +9°C° 0 mm 5 mps 721 mmHg 38%
    01:00 +9°C° 0 mm 5 mps 721 mmHg 41%
    02:00 +8°C° 0 mm 5 mps 721 mmHg 45%
    03:00 +7°C° 0 mm 4 mps 721 mmHg 49%
    04:00 +7°C° 0 mm 4 mps 721 mmHg 53%
    05:00 +6°C° 0 mm 5 mps 722 mmHg 55%
    06:00 +6°C° 0 mm 5 mps 722 mmHg 57%
    07:00 +6°C° 0 mm 5 mps 723 mmHg 57%
    08:00 +8°C° 0 mm 5 mps 723 mmHg 49%
    09:00 +12°C° 0 mm 5 mps 723 mmHg 42%
    10:00 +14°C° 0 mm 6 mps 723 mmHg 34%
    11:00 +16°C° 0 mm 5 mps 723 mmHg 29%
    12:00 +17°C° 0 mm 5 mps 722 mmHg 23%
    13:00 +20°C° 0 mm 5 mps 721 mmHg 18%
    14:00 +20°C° 0 mm 6 mps 721 mmHg 18%
    15:00 +20°C° 0 mm 6 mps 721 mmHg 17%
    16:00 +20°C° 0 mm 6 mps 721 mmHg 17%
    17:00 +17°C° 0 mm 6 mps 721 mmHg 21%
    18:00 +15°C° 0 mm 6 mps 721 mmHg 25%
    19:00 +13°C° 0 mm 6 mps 721 mmHg 29%
    20:00 +12°C° 0 mm 5 mps 721 mmHg 32%
    21:00 +10°C° 0 mm 5 mps 721 mmHg 35%
    22:00 +9°C° 0 mm 5 mps 722 mmHg 38%
    23:00 +8°C° 0 mm 4 mps 722 mmHg 41%

    Tomorrow, 23 January, Thursday

    Time Temperature Precipitation Wind Pressure Humidity
    00:00 +7°C° 0 mm 4 mps 722 mmHg 43%
    01:00 +7°C° 0 mm 4 mps 722 mmHg 45%
    02:00 +6°C° 0 mm 4 mps 721 mmHg 46%
    03:00 +5°C° 0 mm 4 mps 721 mmHg 47%
    04:00 +5°C° 0 mm 4 mps 721 mmHg 48%
    05:00 +5°C° 0 mm 4 mps 722 mmHg 49%
    06:00 +5°C° 0 mm 4 mps 722 mmHg 49%
    07:00 +5°C° 0 mm 4 mps 723 mmHg 50%
    08:00 +7°C° 0 mm 4 mps 723 mmHg 43%
    09:00 +10°C° 0 mm 5 mps 723 mmHg 35%
    10:00 +13°C° 0 mm 5 mps 723 mmHg 28%
    11:00 +15°C° 0 mm 5 mps 723 mmHg 24%
    12:00 +16°C° 0 mm 5 mps 722 mmHg 20%
    13:00 +19°C° 0 mm 4 mps 721 mmHg 16%
    14:00 +19°C° 0 mm 5 mps 721 mmHg 15%
    15:00 +19°C° 0 mm 5 mps 721 mmHg 14%
    16:00 +19°C° 0 mm 5 mps 721 mmHg 14%
    17:00 +16°C° 0 mm 5 mps 721 mmHg 17%
    18:00 +14°C° 0 mm 5 mps 721 mmHg 20%
    19:00 +12°C° 0 mm 4 mps 721 mmHg 23%
    20:00 +11°C° 0 mm 4 mps 721 mmHg 26%
    21:00 +10°C° 0 mm 4 mps 722 mmHg 29%
    22:00 +8°C° 0 mm 4 mps 722 mmHg 32%
    23:00 +8°C° 0 mm 4 mps 722 mmHg 34%

    Day after tomorrow, 24 January, Friday

    Time Temperature Precipitation Wind Pressure Humidity
    00:00 +8°C° 0 mm 3 mps 722 mmHg 36%
    01:00 +7°C° 0 mm 3 mps 721 mmHg 38%
    02:00 +7°C° 0 mm 3 mps 721 mmHg 39%
    03:00 +7°C° 0 mm 3 mps 721 mmHg 41%
    04:00 +7°C° 0 mm 3 mps 721 mmHg 42%
    05:00 +5°C° 0 mm 3 mps 722 mmHg 43%
    06:00 +5°C° 0 mm 4 mps 722 mmHg 44%
    07:00 +5°C° 0 mm 4 mps 723 mmHg 45%
    08:00 +8°C° 0 mm 4 mps 723 mmHg 39%
    09:00 +11°C° 0 mm 4 mps 723 mmHg 33%
    10:00 +14°C° 0 mm 5 mps 724 mmHg 27%
    11:00 +15°C° 0 mm 4 mps 723 mmHg 24%
    12:00 +18°C° 0 mm 4 mps 722 mmHg 21%
    13:00 +19°C° 0 mm 4 mps 722 mmHg 17%
    14:00 +20°C° 0 mm 4 mps 722 mmHg 17%
    15:00 +20°C° 0 mm 5 mps 721 mmHg 16%
    16:00 +20°C° 0 mm 5 mps 721 mmHg 16%
    17:00 +17°C° 0 mm 5 mps 721 mmHg 19%
    18:00 +15°C° 0 mm 5 mps 721 mmHg 22%
    19:00 +13°C° 0 mm 5 mps 721 mmHg 25%
    20:00 +12°C° 0 mm 5 mps 722 mmHg 27%
    21:00 +11°C° 0 mm 4 mps 722 mmHg 29%
    22:00 +10°C° 0 mm 4 mps 723 mmHg 31%
    23:00 +10°C° 0 mm 4 mps 722 mmHg 33%

    25 January, Saturday

    Time Temperature Precipitation Wind Pressure Humidity
    00:00 +8°C° 0 mm 4 mps 722 mmHg 35%
    01:00 +8°C° 0 mm 4 mps 722 mmHg 37%
    02:00 +7°C° 0 mm 4 mps 722 mmHg 39%
    03:00 +6°C° 0 mm 4 mps 722 mmHg 41%
    04:00 +7°C° 0 mm 3 mps 722 mmHg 43%
    05:00 +5°C° 0 mm 3 mps 722 mmHg 43%
    06:00 +5°C° 0 mm 3 mps 722 mmHg 43%
    07:00 +5°C° 0 mm 3 mps 723 mmHg 43%
    08:00 +8°C° 0 mm 4 mps 723 mmHg 37%
    09:00 +11°C° 0 mm 4 mps 723 mmHg 31%
    10:00 +14°C° 0 mm 4 mps 724 mmHg 25%
    11:00 +15°C° 0 mm 4 mps 723 mmHg 22%
    12:00 +18°C° 0 mm 3 mps 722 mmHg 19%
    13:00 +20°C° 0 mm 3 mps 722 mmHg 16%
    14:00 +20°C° 0 mm 3 mps 722 mmHg 15%
    15:00 +20°C° 0 mm 4 mps 721 mmHg 14%
    16:00 +20°C° 0 mm 5 mps 721 mmHg 13%
    17:00 +17°C° 0 mm 5 mps 721 mmHg 15%
    18:00 +15°C° 0 mm 5 mps 721 mmHg 17%
    19:00 +13°C° 0 mm 5 mps 721 mmHg 19%
    20:00 +12°C° 0 mm 5 mps 721 mmHg 21%
    21:00 +11°C° 0 mm 4 mps 722 mmHg 23%
    22:00 +10°C° 0 mm 4 mps 722 mmHg 25%
    23:00 +10°C° 0 mm 4 mps 722 mmHg 26%

    26 January, Sunday

    Time Temperature Precipitation Wind Pressure Humidity
    00:00 +9°C° 0 mm 3 mps 722 mmHg 27%
    01:00 +8°C° 0 mm 3 mps 721 mmHg 27%
    02:00 +8°C° 0 mm 3 mps 721 mmHg 29%
    03:00 +7°C° 0 mm 3 mps 721 mmHg 31%
    04:00 +7°C° 0 mm 3 mps 721 mmHg 33%
    05:00 +7°C° 0 mm 3 mps 721 mmHg 34%
    06:00 +7°C° 0 mm 2 mps 722 mmHg 35%
    07:00 +7°C° 0 mm 2 mps 722 mmHg 36%
    08:00 +10°C° 0 mm 2 mps 722 mmHg 32%
    09:00 +12°C° 0 mm 3 mps 722 mmHg 27%
    10:00 +16°C° 0 mm 3 mps 722 mmHg 23%
    11:00 +18°C° 0 mm 3 mps 722 mmHg 19%
    12:00 +20°C° 0 mm 3 mps 721 mmHg 16%
    13:00 +21°C° 0 mm 3 mps 721 mmHg 13%
    14:00 +22°C° 0 mm 3 mps 720 mmHg 12%
    15:00 +22°C° 0 mm 3 mps 720 mmHg 11%
    16:00 +22°C° 0 mm 3 mps 719 mmHg 10%
    17:00 +20°C° 0 mm 3 mps 719 mmHg 12%
    18:00 +18°C° 0 mm 4 mps 719 mmHg 14%
    19:00 +14°C° 0 mm 4 mps 719 mmHg 16%
    20:00 +14°C° 0 mm 4 mps 720 mmHg 17%
    21:00 +13°C° 0 mm 3 mps 720 mmHg 17%
    22:00 +12°C° 0 mm 3 mps 720 mmHg 18%
    23:00 +11°C° 0 mm 3 mps 720 mmHg 19%

    27 January, Monday

    Time Temperature Precipitation Wind Pressure Humidity
    00:00 +10°C° 0 mm 3 mps 719 mmHg 19%
    01:00 +9°C° 0 mm 3 mps 719 mmHg 19%
    02:00 +9°C° 0 mm 2 mps 719 mmHg 20%
    03:00 +8°C° 0 mm 2 mps 718 mmHg 21%
    04:00 +7°C° 0 mm 2 mps 718 mmHg 22%
    05:00 +7°C° 0 mm 2 mps 718 mmHg 22%
    06:00 +7°C° 0 mm 2 mps 719 mmHg 23%
    07:00 +8°C° 0 mm 2 mps 719 mmHg 23%
    08:00 +10°C° 0 mm 2 mps 719 mmHg 20%
    09:00 +13°C° 0 mm 3 mps 720 mmHg 17%
    10:00 +17°C° 0 mm 3 mps 720 mmHg 14%
    11:00 +19°C° 0 mm 3 mps 719 mmHg 11%
    12:00 +21°C° 0 mm 3 mps 719 mmHg 9%
    13:00 +22°C° 0 mm 3 mps 718 mmHg 7%
    14:00 +24°C° 0 mm 2 mps 718 mmHg 7%
    15:00 +24°C° 0 mm 1 mps 717 mmHg 7%
    16:00 +24°C° 0 mm 1 mps 717 mmHg 6%
    17:00 +21°C° 0 mm 1 mps 716 mmHg 8%
    18:00 +18°C° 0 mm 1 mps 716 mmHg 10%
    19:00 +14°C° 0 mm 1 mps 716 mmHg 12%
    20:00 +14°C° 0 mm 2 mps 716 mmHg 12%
    21:00 +14°C° 0 mm 2 mps 716 mmHg 12%
    22:00 +13°C° 0 mm 3 mps 717 mmHg 13%
    23:00 +13°C° 0 mm 2 mps 716 mmHg 14%
    Show more